Grand Rapids, MI

12:51 AM EST on November 18, 2019 (GMT -0500)
Gerald R. Ford International

Weather History for KGRR - July, 2019

Change the Weather History Date:

Wednesday, July 24, 2019

  Actual Average Record
Temperature  
Mean Temperature 68 °F 72 °F  
Max Temperature 81 °F 83 °F 103 °F (1934)
Min Temperature 54 °F 63 °F 47 °F (1953)
Degree Days  
Heating Degree Days 0 0  
Month to date heating degree days 0  
Since 1 June heating degree days 45  
Since 1 July heating degree days 0  
Cooling Degree Days 2 8  
Month to date cooling degree days 189  
Year to date cooling degree days 381  
Since 1 June cooling degree days 334  
Growing Degree Days 18 (Base 50)    
Moisture  
Dew Point 51 °F    
Average Humidity 54    
Maximum Humidity 83    
Minimum Humidity 27    
Precipitation  
Precipitation 0.00 in 0.12 in 1.53 in (2016)
Month to date precipitation 2.93  
Year to date precipitation 20.28  
Snow  
Snow 0.00 in 0.00 in 0.00 in (2006)
Month to date snowfall 0.0  
Since 1 June snowfall 0.0  
Since 1 July snowfall 0.0  
Snow Depth -    
Sea Level Pressure  
Sea Level Pressure 30.13 in    
Wind  
Wind Speed 4 mph (NW)    
Max Wind Speed 9 mph    
Max Gust Speed -    
Visibility 10 miles    
Events      
T = Trace of Precipitation, MM = Missing Value Source: NWS Daily Summary

Daily Weather History Graph

Daily Weather History Graph

Search for Another Location

Airport or City:

Astronomy

Jul. 24, 2019 Rise Set
Actual Time 6:24 AM EDT 9:11 PM EDT
Civil Twilight 5:51 AM EDT 9:44 PM EDT
Nautical Twilight 5:10 AM EDT 10:26 PM EDT
Astronomical Twilight 4:21 AM EDT 11:14 PM EDT
Moon 12:50 AM EDT (7/24) 1:45 PM EDT (7/24)
Length of Visible Light 15h 52m
Length of Day
14h 46m
Waning Gibbous, 54% of the Moon is Illuminated
Jul 24
Waning Gibbous
Jul 24
Last Quarter
Jul 31
New
Aug 7
First Quarter
Aug 15
Full

Hourly Weather History & Observations

Time (EDT) Temp. Heat Index Dew Point Humidity Pressure Visibility Wind Dir Wind Speed Gust Speed Precip Events Conditions
12:53 AM 62.1 °F - 52.0 °F 70% 30.09 in 10.0 mi North 5.8 mph - N/A   Clear
1:53 AM 61.0 °F - 51.1 °F 70% 30.10 in 10.0 mi NW 3.5 mph - N/A   Clear
2:53 AM 60.1 °F - 51.1 °F 72% 30.10 in 10.0 mi NNW 4.6 mph - N/A   Clear
3:53 AM 57.9 °F - 51.1 °F 78% 30.10 in 10.0 mi NNW 4.6 mph - N/A   Clear
4:53 AM 57.0 °F - 50.0 °F 77% 30.10 in 10.0 mi NNW 4.6 mph - N/A   Clear
5:53 AM 55.0 °F - 48.9 °F 80% 30.12 in 10.0 mi NNW 3.5 mph - N/A   Partly Cloudy
6:53 AM 54.0 °F - 48.9 °F 83% 30.14 in 10.0 mi NNE 3.5 mph - N/A   Scattered Clouds
7:53 AM 59.0 °F - 51.1 °F 75% 30.15 in 10.0 mi Calm Calm - N/A   Partly Cloudy
8:53 AM 64.0 °F - 51.1 °F 63% 30.17 in 10.0 mi Calm Calm - N/A   Partly Cloudy
9:53 AM 68.0 °F - 51.1 °F 55% 30.18 in 10.0 mi Calm Calm - N/A   Partly Cloudy
10:53 AM 71.1 °F - 48.0 °F 44% 30.17 in 10.0 mi NNW 6.9 mph - N/A   Partly Cloudy
11:53 AM 73.9 °F - 51.1 °F 45% 30.17 in 10.0 mi NW 5.8 mph - N/A   Partly Cloudy
12:53 PM 75.0 °F - 50.0 °F 41% 30.17 in 10.0 mi Calm Calm - N/A   Partly Cloudy
1:53 PM 77.0 °F - 51.1 °F 40% 30.16 in 10.0 mi Calm Calm - N/A   Partly Cloudy
2:53 PM 78.1 °F - 51.1 °F 39% 30.14 in 10.0 mi NNE 4.6 mph - N/A   Partly Cloudy
3:53 PM 79.0 °F - 51.1 °F 38% 30.13 in 10.0 mi NNE 6.9 mph - N/A   Partly Cloudy
4:53 PM 80.1 °F - 52.0 °F 38% 30.12 in 10.0 mi Variable 3.5 mph - N/A   Clear
5:53 PM 80.1 °F 79.9 °F 53.1 °F 39% 30.11 in 10.0 mi Variable 3.5 mph - N/A   Partly Cloudy
6:53 PM 80.1 °F - 52.0 °F 38% 30.12 in 10.0 mi WNW 5.8 mph - N/A   Partly Cloudy
7:53 PM 77.0 °F - 54.0 °F 45% 30.12 in 10.0 mi WNW 9.2 mph - N/A   Scattered Clouds
8:53 PM 73.0 °F - 51.1 °F 46% 30.13 in 10.0 mi West 9.2 mph - N/A   Mostly Cloudy
9:53 PM 70.0 °F - 51.1 °F 51% 30.13 in 10.0 mi West 6.9 mph - N/A   Overcast
10:53 PM 69.1 °F - 50.0 °F 51% 30.14 in 10.0 mi WSW 6.9 mph - N/A   Overcast
11:53 PM 66.9 °F - 52.0 °F 59% 30.13 in 10.0 mi SW 3.5 mph - N/A   Overcast